Weather reports worldwide

Advertisment
Ferrara, Italy (16138): temperature & dewpoint: 01.08.2020 02:00:00 - 07.08.2020 02:00:00 (CEST)Ferrara, Italy (16138): wind speed: 01.08.2020 02:00:00 - 07.08.2020 02:00:00 (CEST)Ferrara, Italy (16138): wind direction: 01.08.2020 02:00:00 - 07.08.2020 02:00:00 (CEST)Ferrara, Italy (16138): reduced air pressure: 01.08.2020 02:00:00 - 07.08.2020 02:00:00 (CEST)Ferrara, Italy (16138): visibility: 01.08.2020 02:00:00 - 07.08.2020 02:00:00 (CEST)
Date & Time tt [°C] td [°C] ff [km/h] ff [kn] dd ppp [hPa] vv [km]
07.08.2020 02:00:00 - - - - - - -
07.08.2020 01:00:00 - - - - - - -
07.08.2020 00:00:00 - - - - - - -
06.08.2020 23:00:00 - - - - - - -
06.08.2020 22:00:00 - - - - - - -
06.08.2020 21:00:00 - - - - - - -
06.08.2020 20:00:00 27,0 18,0 0 0 N 1016,3 25
06.08.2020 19:00:00 28,0 19,0 - - - - 10
06.08.2020 18:00:00 29,0 19,0 - - - - 10
06.08.2020 17:00:00 29,2 19,5 5 3 E 1016,2 30
06.08.2020 16:00:00 29,0 20,0 - - - - 10
06.08.2020 15:00:00 29,0 20,0 - - - - 10
06.08.2020 14:00:00 29,2 19,5 8 4 ESE 1016,4 30
06.08.2020 13:00:00 28,0 19,0 - - - - 10
06.08.2020 12:00:00 27,0 19,0 - - - - 10
06.08.2020 11:00:00 25,0 18,7 5 3 E 1016,3 30
06.08.2020 10:00:00 23,0 18,0 - - - - 10
06.08.2020 09:00:00 22,0 17,0 - - - - 10
06.08.2020 08:00:00 20,0 17,2 0 0 N 1015,3 30
06.08.2020 07:00:00 - - - - - - -
06.08.2020 06:00:00 - - - - - - -
06.08.2020 05:00:00 - - - - - - -
06.08.2020 04:00:00 - - - - - - -
06.08.2020 03:00:00 - - - - - - -
06.08.2020 02:00:00 - - - - - - -
06.08.2020 01:00:00 - - - - - - -
06.08.2020 00:00:00 - - - - - - -
05.08.2020 23:00:00 - - - - - - -
05.08.2020 22:00:00 - - - - - - -
05.08.2020 21:00:00 - - - - - - -
05.08.2020 20:00:00 23,8 15,6 0 0 N 1013,0 50
05.08.2020 19:00:00 25,0 15,0 - - - - 10
05.08.2020 18:00:00 25,0 15,0 - - - - 10
05.08.2020 17:00:00 25,4 14,5 0 0 N 1013,0 30
05.08.2020 16:00:00 26,0 15,0 - - - - 10
05.08.2020 15:00:00 26,0 15,0 - - - - 10
05.08.2020 14:00:00 27,0 16,3 0 0 N 1013,1 30
05.08.2020 13:00:00 26,0 17,0 - - - - 10
05.08.2020 12:00:00 25,0 16,0 - - - - 10
05.08.2020 11:00:00 24,2 17,2 9 5 S 1013,0 30
05.08.2020 10:00:00 22,0 18,0 - - - - 10
05.08.2020 09:00:00 20,0 18,0 - - - - 10
05.08.2020 08:00:00 18,2 17,5 8 4 S 1012,0 10
05.08.2020 07:00:00 - - - - - - -
05.08.2020 06:00:00 - - - - - - -
05.08.2020 05:00:00 - - - - - - -
05.08.2020 04:00:00 - - - - - - -
05.08.2020 03:00:00 - - - - - - -
05.08.2020 02:00:00 - - - - - - -
05.08.2020 01:00:00 - - - - - - -
05.08.2020 00:00:00 - - - - - - -
04.08.2020 23:00:00 - - - - - - -
04.08.2020 22:00:00 - - - - - - -
04.08.2020 21:00:00 - - - - - - -
04.08.2020 20:00:00 22,0 15,8 0 0 N 1007,3 40
04.08.2020 19:00:00 22,0 16,0 - - - - 10
04.08.2020 18:00:00 21,0 16,0 - - - - 10
04.08.2020 17:00:00 22,4 16,2 8 4 SW 1006,2 40
04.08.2020 16:00:00 24,0 16,0 - - - - 10
04.08.2020 15:00:00 23,0 16,0 - - - - 10
04.08.2020 14:00:00 23,2 16,3 8 4 WSW 1005,9 40
04.08.2020 13:00:00 23,0 16,0 - - - - 10
04.08.2020 12:00:00 23,0 17,0 - - - - 10
04.08.2020 11:00:00 23,4 16,9 0 0 N 1004,5 40
04.08.2020 10:00:00 20,0 17,0 - - - - 10
04.08.2020 09:00:00 18,0 16,0 - - - - 10
04.08.2020 08:00:00 16,6 15,6 0 0 N 1003,4 30
04.08.2020 07:00:00 - - - - - - -
04.08.2020 06:00:00 - - - - - - -
04.08.2020 05:00:00 - - - - - - -
04.08.2020 04:00:00 - - - - - - -
04.08.2020 03:00:00 - - - - - - -
04.08.2020 02:00:00 - - - - - - -
04.08.2020 01:00:00 - - - - - - -
04.08.2020 00:00:00 - - - - - - -
03.08.2020 23:00:00 - - - - - - -
03.08.2020 22:00:00 - - - - - - -
03.08.2020 21:00:00 - - - - - - -
03.08.2020 20:00:00 21,0 18,8 0 0 N 1002,7 30
03.08.2020 19:00:00 21,0 19,0 - - - - 10
03.08.2020 18:00:00 20,0 19,0 - - - - 10
03.08.2020 17:00:00 21,0 20,3 8 4 ESE 1003,5 20
03.08.2020 16:00:00 23,0 20,0 - - - - 6
03.08.2020 15:00:00 24,0 21,0 - - - - 10
03.08.2020 14:00:00 24,2 20,5 5 3 S 1006,1 10
03.08.2020 13:00:00 25,0 21,0 - - - - 10
03.08.2020 12:00:00 24,0 20,0 0 0 N - 10
03.08.2020 11:00:00 23,0 20,2 0 0 N 1007,7 10
03.08.2020 10:00:00 22,0 20,0 - - - - 10
03.08.2020 09:00:00 20,0 19,0 - - - - 10
03.08.2020 08:00:00 19,4 18,9 0 0 N 1008,2 10
03.08.2020 07:00:00 - - - - - - -
03.08.2020 06:00:00 - - - - - - -
03.08.2020 05:00:00 - - - - - - -
03.08.2020 04:00:00 - - - - - - -
03.08.2020 03:00:00 - - - - - - -
03.08.2020 02:00:00 - - - - - - -
03.08.2020 01:00:00 - - - - - - -
03.08.2020 00:00:00 - - - - - - -
02.08.2020 23:00:00 - - - - - - -
02.08.2020 22:00:00 - - - - - - -
02.08.2020 21:00:00 - - - - - - -
02.08.2020 20:00:00 28,8 21,3 8 4 NE 1008,9 10
02.08.2020 19:00:00 30,0 20,0 - - - - 10
02.08.2020 18:00:00 31,0 20,0 - - - - 10
02.08.2020 17:00:00 31,0 20,9 4 2 NE 1009,8 10
02.08.2020 16:00:00 31,0 20,0 - - - - 10
02.08.2020 15:00:00 30,0 21,0 - - - - 10
02.08.2020 14:00:00 28,2 20,5 0 0 N 1011,6 10
02.08.2020 13:00:00 24,0 20,0 - - - - 10
02.08.2020 12:00:00 25,0 20,0 - - - - 10
02.08.2020 11:00:00 24,4 21,7 0 0 N 1012,3 10
02.08.2020 10:00:00 22,0 20,0 - - - - 10
02.08.2020 09:00:00 21,0 21,0 - - - - 10
02.08.2020 08:00:00 21,0 20,3 0 0 N 1011,9 10
02.08.2020 07:00:00 - - - - - - -
02.08.2020 06:00:00 - - - - - - -
02.08.2020 05:00:00 - - - - - - -
02.08.2020 04:00:00 - - - - - - -
02.08.2020 03:00:00 - - - - - - -
02.08.2020 02:00:00 - - - - - - -
02.08.2020 01:00:00 - - - - - - -
02.08.2020 00:00:00 - - - - - - -
01.08.2020 23:00:00 - - - - - - -
01.08.2020 22:00:00 - - - - - - -
01.08.2020 21:00:00 - - - - - - -
01.08.2020 20:00:00 33,6 22,7 4 2 S 1009,9 15
01.08.2020 19:00:00 35,0 23,0 - - - - 10
01.08.2020 18:00:00 35,0 23,0 - - - - 10
01.08.2020 17:00:00 35,2 22,2 5 3 E 1011,4 20
01.08.2020 16:00:00 35,0 23,0 - - - - 10
01.08.2020 15:00:00 35,0 25,0 - - - - 10
01.08.2020 14:00:00 35,2 24,5 5 3 SW 1013,1 20
01.08.2020 13:00:00 34,0 24,0 - - - - 10
01.08.2020 12:00:00 33,0 24,0 - - - - 10
01.08.2020 11:00:00 31,0 24,4 5 3 E 1013,8 20
01.08.2020 10:00:00 28,0 23,0 - - - - 10
01.08.2020 09:00:00 25,0 21,0 - - - - 10
01.08.2020 08:00:00 22,4 19,8 0 0 N 1013,5 20
01.08.2020 07:00:00 - - - - - - -
01.08.2020 06:00:00 - - - - - - -
01.08.2020 05:00:00 - - - - - - -
01.08.2020 04:00:00 - - - - - - -
01.08.2020 03:00:00 - - - - - - -
01.08.2020 02:00:00 - - - - - - -

tt = temperature
td = dewpoint
ff = wind speed
dd = wind direction
ppp = reduced air pressure
vv = visibility

Next stations